[[{"header":{"parameterUnit":"m.s-1","parameterCategory":2,"la1":30.2991,"la2":30.254,"lo1":-89.0895,"lo2":-89.0444,"dy":0.0017,"dx":0.0017,"nx":28,"ny":28,"refTime":"2024-09-01T21:00:00:Z","depth":"0","parameterNumber":2,"parameterNumberName":"U-component_of_CURRENTS"},"data":[0,0,0,0,0,0,0,0,0,0,0,0,0,0,0,0,0,0,0,0,0,0,0,0,0,0,0,0,0,0,0,0,0,0,0,0,0,0,0,0,0,0,0,0,0,0,0,0,0,0,0,0,0,0,0,0,0,0,-0.2575,-0.2575,0,-0.2515,-0.2514,-0.2513,-0.2502,-0.2503,-0.2503,-0.2504,-0.2428,-0.2426,-0.2423,0,0,0,0,0,0,0,0,0,0,0,0,0,-0.2574,-0.2574,-0.2575,-0.2575,-0.2574,-0.2515,-0.2514,-0.2513,-0.2502,-0.2503,-0.2504,-0.2505,-0.2429,-0.2426,-0.2423,0,0,0,0,0,0,0,0,0,0,0,0,0,-0.2547,-0.2575,-0.2575,-0.2564,-0.2563,-0.2516,-0.2514,-0.2513,-0.2501,-0.2503,-0.2504,-0.2505,-0.243,-0.2426,-0.2422,-0.2371,0,0,-0.2409,-0.2407,0,0,0,0,0,0,0,0,-0.2549,-0.2547,-0.2566,-0.2565,-0.2564,-0.2521,-0.2486,-0.2466,-0.2501,-0.2521,-0.2504,-0.2506,-0.2459,-0.2453,-0.2433,-0.2368,-0.2364,-0.2409,-0.2406,-0.2405,-0.2403,0,0,0,0,0,0,0,-0.2551,-0.2548,-0.2547,-0.2566,-0.2564,-0.2527,-0.2525,-0.2482,-0.248,-0.2519,-0.2519,-0.2518,-0.2458,-0.2437,-0.2432,-0.2363,-0.2409,-0.2405,-0.2403,-0.2401,-0.2303,-0.2303,0,0,0,0,0,0,-0.257,-0.2551,-0.2549,-0.2546,-0.2563,-0.2527,-0.2524,-0.253,-0.2481,-0.2476,-0.2517,-0.2518,-0.2444,-0.2437,-0.2429,-0.2398,-0.2405,-0.2401,-0.2398,-0.2303,-0.2303,-0.2303,0,0,0,0,0,0,-0.257,-0.2571,-0.2552,-0.255,-0.2545,-0.2526,-0.2532,-0.2528,-0.2512,-0.2481,-0.2475,-0.2507,-0.2445,-0.2435,-0.2399,-0.2394,-0.2399,-0.2395,-0.2303,-0.2303,-0.2303,-0.2316,0,0,0,0,0,0,-0.2571,-0.2571,-0.2576,-0.2551,-0.2546,-0.253,-0.2531,-0.2526,-0.2511,-0.2511,-0.2469,-0.2463,-0.2445,-0.2405,-0.2395,-0.2389,-0.2392,-0.2303,-0.2303,-0.2303,-0.2316,-0.2317,-0.2317,0,0,0,0,0,-0.2571,-0.2571,-0.2577,-0.2576,-0.2556,-0.253,-0.2522,-0.251,-0.251,-0.2499,-0.2476,-0.2465,-0.2397,-0.2401,-0.2389,-0.2382,-0.2303,-0.2303,-0.2303,-0.2316,-0.2316,-0.2317,0,0,0,0,0,0,-0.2562,-0.257,-0.2575,-0.2576,-0.256,-0.253,-0.2517,-0.2507,-0.2477,-0.248,-0.2451,-0.2442,-0.2415,-0.2393,-0.2398,-0.2355,-0.2353,-0.235,-0.2367,-0.2367,-0.2368,-0.2329,-0.2388,0,0,0,0,0,-0.2567,-0.2575,-0.2568,-0.2565,-0.2561,-0.2538,-0.2524,-0.2518,-0.2492,-0.248,-0.2452,-0.2425,-0.24,-0.2381,-0.2356,-0.2316,-0.2268,-0.2309,-0.231,-0.231,-0.2272,-0.2199,-0.2189,-0.2302,-0.2302,-0.2302,0,0,-0.2558,-0.2566,-0.2567,-0.2564,-0.255,-0.2534,-0.2531,-0.2514,-0.2494,-0.2475,-0.2435,-0.2423,-0.2392,-0.2363,-0.2348,-0.2344,-0.226,-0.231,-0.2311,-0.2271,-0.2197,-0.2186,-0.2176,-0.2302,-0.2302,-0.2302,0,0,-0.2546,-0.2556,-0.2561,-0.2552,-0.2545,-0.2529,-0.2527,-0.2501,-0.2485,-0.2451,-0.244,-0.2408,-0.2374,-0.2339,-0.2321,-0.23,-0.2269,-0.232,-0.2281,-0.2212,-0.2201,-0.2191,-0.2141,-0.2126,-0.2316,-0.2316,-0.2316,0,-0.2535,-0.2544,-0.2551,-0.2551,-0.2535,-0.2528,-0.2511,-0.249,-0.2454,-0.2424,-0.2446,-0.2367,-0.235,-0.2287,-0.2295,-0.2295,-0.2265,-0.2284,-0.221,-0.2199,-0.2188,-0.2139,-0.2122,-0.2316,-0.2316,-0.2316,-0.2316,0,-0.2525,-0.2531,-0.2527,-0.2529,-0.2512,-0.2494,-0.2476,-0.2452,-0.2438,-0.2409,-0.2354,-0.2327,-0.2276,-0.2283,-0.2282,-0.2207,-0.2215,-0.2225,-0.2205,-0.2177,-0.2128,-0.211,-0.2317,-0.2317,-0.2317,-0.2317,0,0,-0.2497,-0.2517,-0.2516,-0.2508,-0.2498,-0.2474,-0.2445,-0.2396,-0.235,-0.2332,-0.2263,-0.2233,-0.2219,-0.2195,-0.2193,-0.2134,-0.2055,-0.2153,-0.2149,-0.2095,-0.1917,-0.1825,-0.1797,-0.2063,-0.206,-0.2057,-0.1923,0,-0.2481,-0.2482,-0.249,-0.2459,-0.2448,-0.243,-0.2388,-0.2346,-0.2311,-0.2246,-0.221,-0.2153,-0.2189,-0.2167,-0.2117,-0.2073,-0.2005,-0.209,-0.1956,-0.1951,-0.1866,-0.1771,-0.163,-0.1488,-0.1905,-0.1902,-0.19,0,-0.2468,-0.2467,-0.2452,-0.2416,-0.2404,-0.2382,-0.2302,-0.2263,-0.2185,-0.2156,-0.2103,-0.2081,-0.2006,-0.2039,-0.1921,-0.1985,-0.1938,-0.1899,-0.1894,-0.1775,-0.1823,-0.1578,-0.144,-0.1428,-0.1872,-0.1874,-0.1876,0,-0.2443,-0.2433,-0.2417,-0.2409,-0.2372,-0.2343,-0.2306,-0.2232,-0.2163,-0.2092,-0.2034,-0.1974,-0.1917,-0.1863,-0.1812,-0.1865,-0.1667,-0.1732,-0.1592,-0.1588,-0.1415,-0.1399,-0.1227,-0.1598,-0.1598,-0.1598,-0.1599,0,-0.2427,-0.2409,-0.2407,-0.2395,-0.2322,-0.2317,-0.2222,-0.2177,-0.209,-0.198,-0.1985,-0.1883,-0.1865,-0.1771,-0.1754,-0.1601,-0.1619,-0.153,-0.1517,-0.1421,-0.1408,-0.1349,-0.1408,-0.1593,-0.1595,-0.1596,-0.1596,0,-0.2405,-0.2422,-0.2375,-0.2336,-0.2315,-0.2256,-0.2157,-0.2073,-0.2027,-0.1887,-0.1858,-0.1779,-0.166,-0.1623,-0.1507,-0.1486,-0.1325,-0.1318,-0.1214,-0.1188,-0.1063,-0.113,-0.0947,-0.0898,-0.1139,-0.1136,-0.1133,0,-0.2401,-0.2383,-0.2313,-0.2253,-0.2233,-0.2157,-0.208,-0.2032,-0.1942,-0.1803,-0.1716,-0.1586,-0.1447,-0.1263,-0.1175,-0.107,-0.1138,-0.0911,-0.0962,-0.0972,-0.1039,-0.1125,-0.1105,-0.0762,-0.0756,-0.0751,-0.0748,0,-0.2337,-0.2308,-0.225,-0.2129,-0.2053,-0.1966,-0.1875,-0.1805,-0.1726,-0.1616,-0.1442,-0.1328,-0.1133,-0.0919,-0.0796,-0.0757,-0.0866,-0.0809,-0.0821,-0.0695,-0.077,-0.0744,-0.0977,-0.0705,-0.071,-0.0713,-0.0715,-0.0717,-0.2249,-0.2162,-0.206,-0.1939,-0.1854,-0.1748,-0.1643,-0.1555,-0.1402,-0.1185,-0.1177,-0.0913,-0.0695,-0.0473,-0.0478,-0.037,-0.0518,-0.0368,-0.0441,-0.0523,-0.0471,-0.0612,-0.0333,-0.0335,-0.0337,-0.0338,-0.0339,0,-0.2093,-0.1988,-0.1859,-0.1698,-0.1567,-0.1582,-0.1455,-0.133,-0.1125,-0.0928,-0.0741,-0.036,-0.0145,-0.0064,0.008,0.0036,-0.0058,-0.0053,-0.0141,-0.0135,-0.0219,-0.0196,0.0131,0.013,0.013,0.013,0.013,0.013,-0.198,-0.1797,-0.1715,-0.1444,-0.1351,-0.1165,-0.1085,-0.093,-0.076,-0.0388,-0.0115,0.0029,0.0202,0.0341,0.0332,0.025,0.0132,0.0089,-0.001,-0.0088,-0.0125,-0.016,-0.0148,0.0183,0.0183,0.0152,0.0151,0.0151]},{"header":{"parameterUnit":"m.s-1","parameterCategory":2,"la1":30.2991,"la2":30.254,"lo1":-89.0895,"lo2":-89.0444,"dy":0.0017,"dx":0.0017,"nx":28,"ny":28,"refTime":"2024-09-01T21:00:00:Z","depth":"0","parameterNumber":3,"parameterNumberName":"V-component_of_CURRENTS"},"data":[0,0,0,0,0,0,0,0,0,0,0,0,0,0,0,0,0,0,0,0,0,0,0,0,0,0,0,0,0,0,0,0,0,0,0,0,0,0,0,0,0,0,0,0,0,0,0,0,0,0,0,0,0,0,0,0,0,0,-0.0567,-0.0566,0,-0.0474,-0.0473,-0.0472,-0.0457,-0.0458,-0.0459,-0.046,-0.031,-0.0306,-0.0301,0,0,0,0,0,0,0,0,0,0,0,0,0,-0.0615,-0.0615,-0.0567,-0.0566,-0.0565,-0.0474,-0.0473,-0.0471,-0.0457,-0.0458,-0.0459,-0.046,-0.0312,-0.0306,-0.03,0,0,0,0,0,0,0,0,0,0,0,0,0,-0.0564,-0.0615,-0.0567,-0.0548,-0.0546,-0.0475,-0.0473,-0.0471,-0.0457,-0.0458,-0.046,-0.0461,-0.0314,-0.0307,-0.03,-0.0224,0,0,-0.0277,-0.0274,0,0,0,0,0,0,0,0,-0.0567,-0.0562,-0.0552,-0.0549,-0.0547,-0.048,-0.0435,-0.0386,-0.0456,-0.0488,-0.046,-0.0462,-0.0362,-0.0351,-0.0328,-0.0217,-0.0211,-0.0276,-0.0272,-0.0269,-0.0267,0,0,0,0,0,0,0,-0.0571,-0.0565,-0.0528,-0.0551,-0.0547,-0.0505,-0.05,-0.0425,-0.0415,-0.0486,-0.0485,-0.0477,-0.036,-0.0335,-0.0324,-0.0209,-0.0277,-0.027,-0.0266,-0.0263,-0.0048,-0.0047,0,0,0,0,0,0,-0.059,-0.0569,-0.0531,-0.0526,-0.0563,-0.0503,-0.0498,-0.0498,-0.0417,-0.0407,-0.0476,-0.0477,-0.0347,-0.0333,-0.0319,-0.022,-0.0269,-0.0262,-0.0258,-0.0049,-0.0048,-0.0046,0,0,0,0,0,0,-0.0592,-0.0588,-0.0535,-0.0546,-0.0537,-0.0502,-0.0502,-0.0496,-0.0473,-0.0411,-0.04,-0.046,-0.0348,-0.0329,-0.0259,-0.0215,-0.0259,-0.0252,-0.0051,-0.0049,-0.0047,-0.0026,0,0,0,0,0,0,-0.0594,-0.0589,-0.0591,-0.0548,-0.0537,-0.0491,-0.0501,-0.0493,-0.0467,-0.0467,-0.0393,-0.0381,-0.0348,-0.027,-0.0251,-0.0206,-0.0246,-0.0052,-0.005,-0.0048,-0.0028,-0.0023,-0.0019,0,0,0,0,0,-0.0596,-0.0586,-0.0592,-0.0587,-0.0543,-0.049,-0.0479,-0.0458,-0.0464,-0.0444,-0.0405,-0.0383,-0.0242,-0.0262,-0.0241,-0.0192,-0.0054,-0.0051,-0.0048,-0.003,-0.0024,-0.0019,0,0,0,0,0,0,-0.0604,-0.0582,-0.0588,-0.0574,-0.0538,-0.0488,-0.0463,-0.0453,-0.0404,-0.0404,-0.0358,-0.0342,-0.027,-0.0233,-0.0258,-0.0127,-0.0146,-0.0139,-0.014,-0.0134,-0.0129,-0.0114,-0.024,0,0,0,0,0,-0.061,-0.0602,-0.057,-0.0558,-0.0539,-0.0502,-0.0478,-0.0463,-0.0418,-0.0399,-0.0354,-0.0299,-0.0237,-0.0191,-0.0141,-0.0051,-0.0031,-0.001,-0.0005,-0.0002,0.0024,0.0098,0.0112,-0.0037,-0.0037,-0.0037,0,0,-0.0612,-0.0597,-0.0595,-0.0559,-0.0529,-0.0489,-0.049,-0.0448,-0.0412,-0.0385,-0.0322,-0.0284,-0.0216,-0.0135,-0.0096,-0.0096,0.0039,0.0002,0.0005,0.0029,0.0103,0.0118,0.0131,-0.0035,-0.0035,-0.0036,0,0,-0.0594,-0.0596,-0.0575,-0.0543,-0.05,-0.0475,-0.0465,-0.0415,-0.0389,-0.0327,-0.0302,-0.0232,-0.0149,-0.0076,-0.0032,0.0037,0.0048,0.0039,0.01,0.0171,0.0184,0.0196,0.0187,0.0199,0.0058,0.0058,0.0058,0,-0.0598,-0.0567,-0.0557,-0.0517,-0.0484,-0.0471,-0.0424,-0.039,-0.0327,-0.0279,-0.031,-0.0158,-0.011,0.0026,0.0038,0.0054,0.0058,0.0073,0.0178,0.0191,0.0203,0.0191,0.0204,0.0059,0.0059,0.0059,0.0059,0,-0.0551,-0.0527,-0.0504,-0.0462,-0.0426,-0.0381,-0.034,-0.0301,-0.0283,-0.0238,-0.013,-0.0071,0.0029,0.0049,0.0067,0.0191,0.0148,0.0159,0.0164,0.0219,0.0202,0.0215,0.0061,0.0061,0.006,0.006,0,0,-0.0565,-0.0487,-0.048,-0.0442,-0.0388,-0.0347,-0.0288,-0.0204,-0.0143,-0.0096,0.0,0.0101,0.0129,0.0181,0.0218,0.0286,0.0349,0.0258,0.0261,0.0246,0.0443,0.0396,0.0404,0.0372,0.0375,0.0378,0.0377,0,-0.0529,-0.0439,-0.0414,-0.0337,-0.0287,-0.0251,-0.0191,-0.0119,-0.0067,0.002,0.0103,0.019,0.0181,0.0226,0.0298,0.0337,0.0391,0.0345,0.0395,0.0396,0.0348,0.0423,0.0483,0.0488,0.0389,0.0391,0.0393,0,-0.0494,-0.0435,-0.0343,-0.0253,-0.0227,-0.0187,-0.0077,-0.0021,0.0096,0.014,0.0241,0.0282,0.0397,0.0365,0.0477,0.0438,0.0452,0.0468,0.0469,0.0439,0.0376,0.0429,0.0514,0.0579,0.0412,0.041,0.0409,0,-0.049,-0.0391,-0.0311,-0.0279,-0.0178,-0.0129,-0.0082,0.0025,0.0086,0.0214,0.026,0.0392,0.0438,0.0504,0.0514,0.0504,0.0598,0.0593,0.0563,0.0555,0.063,0.0624,0.0795,0.0692,0.0692,0.0692,0.0692,0,-0.0462,-0.0403,-0.0302,-0.0258,-0.0173,-0.011,-0.0015,0.0049,0.0155,0.0236,0.0317,0.0387,0.0476,0.0525,0.0545,0.0573,0.0623,0.0594,0.0583,0.0629,0.0623,0.0699,0.0699,0.0692,0.0692,0.0692,0.0692,0,-0.0474,-0.0406,-0.0314,-0.0199,-0.0172,-0.0113,-0.0019,0.0052,0.0141,0.024,0.0275,0.0387,0.0448,0.05,0.0588,0.0595,0.068,0.0635,0.0634,0.0625,0.0662,0.0658,0.0767,0.0847,0.0624,0.0624,0.0623,0,-0.0468,-0.0415,-0.0294,-0.0257,-0.0211,-0.0127,-0.0076,0.0027,0.0091,0.0232,0.0274,0.0365,0.044,0.0519,0.0565,0.0601,0.066,0.0661,0.069,0.07,0.0689,0.0673,0.0733,0.0766,0.0767,0.0768,0.0768,0,-0.0456,-0.0409,-0.0339,-0.0265,-0.021,-0.0139,-0.0063,-0.0016,0.0106,0.0195,0.0308,0.0383,0.0464,0.0555,0.0581,0.0615,0.0732,0.0669,0.0738,0.0873,0.0819,0.0876,0.0658,0.0773,0.0772,0.0772,0.0772,0.0771,-0.0457,-0.0414,-0.033,-0.0264,-0.0211,-0.015,-0.0077,-0.0001,0.0103,0.0286,0.0336,0.0528,0.0591,0.0656,0.0666,0.0759,0.0738,0.0832,0.0835,0.0822,0.0906,0.0644,0.071,0.0709,0.0708,0.0708,0.0707,0,-0.0446,-0.0396,-0.0338,-0.0246,-0.0189,-0.0155,-0.006,0.0031,0.0155,0.0339,0.0491,0.0766,0.0791,0.0845,0.0871,0.093,0.0994,0.0992,0.1048,0.1113,0.0954,0.0971,0.1029,0.1029,0.1029,0.1029,0.1029,0.1029,-0.0431,-0.0375,-0.0339,-0.0245,-0.018,-0.006,0.0009,0.0126,0.0275,0.0602,0.0886,0.1079,0.1138,0.0952,0.1007,0.1078,0.1209,0.1185,0.123,0.1165,0.1152,0.114,0.1163,0.1259,0.126,0.1454,0.1455,0.1457]}],[{"header":{"parameterUnit":"m.s-1","parameterCategory":2,"la1":30.2991,"la2":30.254,"lo1":-89.0895,"lo2":-89.0444,"dy":0.0017,"dx":0.0017,"nx":28,"ny":28,"refTime":"2024-09-01T21:00:00:Z","depth":"2","parameterNumber":2,"parameterNumberName":"U-component_of_CURRENTS"},"data":[0,0,0,0,0,0,0,0,0,0,0,0,0,0,0,0,0,0,0,0,0,0,0,0,0,0,0,0,0,0,0,0,0,0,0,0,0,0,0,0,0,0,0,0,0,0,0,0,0,0,0,0,0,0,0,0,0,0,-0.1811,-0.181,0,-0.1703,-0.1701,-0.1699,-0.1677,-0.1679,-0.1681,-0.1682,-0.17,-0.1699,-0.1698,0,0,0,0,0,0,0,0,0,0,0,0,0,-0.1758,-0.176,-0.1811,-0.181,-0.181,-0.1703,-0.1701,-0.1699,-0.1677,-0.1679,-0.1681,-0.1683,-0.1701,-0.1699,-0.1698,0,0,0,0,0,0,0,0,0,0,0,0,0,-0.1721,-0.176,-0.1811,-0.1793,-0.1791,-0.1704,-0.1701,-0.1698,-0.1677,-0.1679,-0.1682,-0.1684,-0.1701,-0.1699,-0.1698,-0.1638,0,0,-0.1693,-0.1692,0,0,0,0,0,0,0,0,-0.1723,-0.1721,-0.1796,-0.1794,-0.1792,-0.1714,-0.1689,-0.1687,-0.1676,-0.171,-0.1682,-0.1685,-0.1721,-0.1718,-0.1677,-0.1639,-0.164,-0.1693,-0.1692,-0.1691,-0.1691,0,0,0,0,0,0,0,-0.1726,-0.1725,-0.1759,-0.1796,-0.1793,-0.1709,-0.1707,-0.1686,-0.1698,-0.1707,-0.1708,-0.171,-0.172,-0.1678,-0.1678,-0.164,-0.1693,-0.1691,-0.1691,-0.169,-0.1713,-0.1715,0,0,0,0,0,0,-0.1768,-0.1729,-0.1762,-0.1757,-0.1773,-0.1709,-0.1707,-0.1729,-0.1696,-0.1694,-0.1708,-0.1709,-0.168,-0.168,-0.1679,-0.1742,-0.1691,-0.169,-0.1689,-0.1712,-0.1713,-0.1715,0,0,0,0,0,0,-0.1767,-0.1772,-0.1767,-0.1745,-0.174,-0.171,-0.1733,-0.1726,-0.1715,-0.1696,-0.1696,-0.171,-0.1682,-0.1681,-0.1718,-0.1738,-0.1689,-0.1688,-0.171,-0.1712,-0.1714,-0.1783,0,0,0,0,0,0,-0.1766,-0.1773,-0.1792,-0.175,-0.1744,-0.1733,-0.1731,-0.1722,-0.1715,-0.1716,-0.1697,-0.1699,-0.1684,-0.1721,-0.1717,-0.1735,-0.1686,-0.1708,-0.1711,-0.1714,-0.1778,-0.1787,-0.1795,0,0,0,0,0,-0.1765,-0.1764,-0.1794,-0.1798,-0.1776,-0.1733,-0.172,-0.1699,-0.1713,-0.1699,-0.1724,-0.1701,-0.1737,-0.1721,-0.1716,-0.1734,-0.1706,-0.171,-0.1713,-0.1775,-0.1785,-0.1794,0,0,0,0,0,0,-0.1756,-0.1762,-0.1794,-0.1802,-0.179,-0.1734,-0.1711,-0.1711,-0.1707,-0.1728,-0.1718,-0.1721,-0.1755,-0.174,-0.1724,-0.1752,-0.1717,-0.172,-0.1766,-0.1776,-0.1784,-0.1757,-0.1685,0,0,0,0,0,-0.1769,-0.1782,-0.1775,-0.1794,-0.1781,-0.1757,-0.1737,-0.1736,-0.173,-0.1728,-0.1721,-0.1733,-0.1753,-0.1767,-0.176,-0.1775,-0.1707,-0.1786,-0.1794,-0.1801,-0.1777,-0.1711,-0.1709,-0.1727,-0.1727,-0.1727,0,0,-0.1785,-0.1786,-0.1801,-0.1794,-0.1776,-0.1769,-0.1748,-0.1732,-0.1751,-0.1734,-0.175,-0.1752,-0.1763,-0.1786,-0.18,-0.1786,-0.1761,-0.1805,-0.1811,-0.1783,-0.1714,-0.1712,-0.171,-0.1729,-0.1729,-0.1728,0,0,-0.1808,-0.1812,-0.1831,-0.1804,-0.1795,-0.1779,-0.1789,-0.1753,-0.1757,-0.1776,-0.1786,-0.1804,-0.1812,-0.182,-0.1834,-0.1878,-0.18,-0.1891,-0.1913,-0.1851,-0.1847,-0.1844,-0.1748,-0.1736,-0.1902,-0.1902,-0.1902,0,-0.1836,-0.1852,-0.1826,-0.1816,-0.18,-0.1798,-0.1802,-0.1798,-0.1791,-0.1797,-0.1801,-0.181,-0.182,-0.1861,-0.189,-0.1892,-0.1833,-0.1878,-0.1857,-0.1852,-0.1847,-0.175,-0.1735,-0.1905,-0.1905,-0.1905,-0.1904,0,-0.1867,-0.1866,-0.1855,-0.1868,-0.1847,-0.1834,-0.1836,-0.1837,-0.1851,-0.1848,-0.1868,-0.1868,-0.1872,-0.1891,-0.1911,-0.1903,-0.1864,-0.1867,-0.1825,-0.1849,-0.1746,-0.1729,-0.1911,-0.1909,-0.1908,-0.1907,0,0,-0.1935,-0.1899,-0.1891,-0.1882,-0.1861,-0.1841,-0.1878,-0.1887,-0.1908,-0.1902,-0.1893,-0.1943,-0.1922,-0.1935,-0.1948,-0.1908,-0.1835,-0.1884,-0.1879,-0.1774,-0.1665,-0.1624,-0.1601,-0.1838,-0.1836,-0.1834,-0.1604,0,-0.1969,-0.196,-0.1939,-0.1929,-0.1902,-0.189,-0.1919,-0.1931,-0.1939,-0.1922,-0.1922,-0.1914,-0.1953,-0.1944,-0.1923,-0.1851,-0.1794,-0.1894,-0.1669,-0.1661,-0.161,-0.1582,-0.1488,-0.1275,-0.1587,-0.1584,-0.1582,0,-0.1946,-0.1962,-0.1957,-0.1926,-0.192,-0.1942,-0.1946,-0.1965,-0.1965,-0.1966,-0.1958,-0.1924,-0.1888,-0.1892,-0.1775,-0.1839,-0.1756,-0.1689,-0.1678,-0.1597,-0.1589,-0.1304,-0.1231,-0.1553,-0.1555,-0.1557,-0.1559,0,-0.19,-0.1915,-0.1918,-0.1901,-0.1917,-0.194,-0.1967,-0.1984,-0.1969,-0.1964,-0.1913,-0.1901,-0.1825,-0.1757,-0.1649,-0.1697,-0.1466,-0.151,-0.1384,-0.1379,-0.1228,-0.1214,-0.1386,-0.1386,-0.1386,-0.1387,-0.1388,0,-0.1837,-0.1824,-0.1913,-0.1894,-0.1929,-0.194,-0.1962,-0.1981,-0.1971,-0.1923,-0.1925,-0.1851,-0.178,-0.1647,-0.1594,-0.1424,-0.142,-0.1352,-0.1313,-0.1252,-0.1244,-0.1439,-0.1448,-0.1378,-0.138,-0.1382,-0.1383,0,-0.1711,-0.1759,-0.1758,-0.185,-0.1872,-0.1893,-0.1925,-0.1924,-0.1942,-0.1856,-0.1822,-0.1744,-0.1604,-0.1509,-0.1343,-0.1308,-0.1177,-0.1113,-0.1034,-0.0992,-0.1141,-0.1157,-0.0943,-0.0939,-0.0936,-0.0934,-0.0932,0,-0.1646,-0.1627,-0.1708,-0.1721,-0.1767,-0.1821,-0.1832,-0.1889,-0.1876,-0.1787,-0.1716,-0.1555,-0.1416,-0.1174,-0.1091,-0.0936,-0.1034,-0.0772,-0.0868,-0.1109,-0.1093,-0.1114,-0.1134,-0.0677,-0.0673,-0.067,-0.0667,0,-0.1518,-0.154,-0.1549,-0.1612,-0.1646,-0.1665,-0.1705,-0.1671,-0.1695,-0.1591,-0.1427,-0.1287,-0.1118,-0.0912,-0.0766,-0.0702,-0.0809,-0.0703,-0.0918,-0.084,-0.085,-0.0839,-0.0867,-0.0638,-0.0641,-0.0643,-0.0645,-0.0646,-0.1397,-0.1387,-0.1405,-0.1449,-0.1501,-0.149,-0.1423,-0.1435,-0.1321,-0.1147,-0.1162,-0.0943,-0.0893,-0.0617,-0.0519,-0.048,-0.0577,-0.0549,-0.0561,-0.0577,-0.0624,-0.0632,-0.0384,-0.0385,-0.0386,-0.0387,-0.0388,0,-0.1203,-0.1209,-0.1239,-0.1268,-0.1264,-0.1357,-0.1299,-0.1182,-0.0981,-0.0915,-0.0756,-0.0569,-0.0416,-0.0406,-0.0278,-0.0231,-0.026,-0.023,-0.0273,-0.03,-0.0325,-0.0364,-0.0052,-0.0051,-0.005,-0.0049,0,0,-0.1086,-0.102,-0.1055,-0.102,-0.1053,-0.0952,-0.0865,-0.0708,-0.0619,-0.0417,-0.0336,-0.0372,-0.0366,-0.0212,-0.0161,-0.008,-0.0194,-0.0064,-0.0332,-0.0409,-0.0433,-0.0502,-0.0591,0,0,0,0,0]},{"header":{"parameterUnit":"m.s-1","parameterCategory":2,"la1":30.2991,"la2":30.254,"lo1":-89.0895,"lo2":-89.0444,"dy":0.0017,"dx":0.0017,"nx":28,"ny":28,"refTime":"2024-09-01T21:00:00:Z","depth":"2","parameterNumber":3,"parameterNumberName":"V-component_of_CURRENTS"},"data":[0,0,0,0,0,0,0,0,0,0,0,0,0,0,0,0,0,0,0,0,0,0,0,0,0,0,0,0,0,0,0,0,0,0,0,0,0,0,0,0,0,0,0,0,0,0,0,0,0,0,0,0,0,0,0,0,0,0,0.0056,0.0056,0,0.0019,0.0018,0.0018,0.0061,0.0063,0.0065,0.0067,0.0085,0.0084,0.0082,0,0,0,0,0,0,0,0,0,0,0,0,0,-0.0,0.0001,0.0056,0.0056,0.0056,0.0019,0.0018,0.0017,0.0061,0.0063,0.0066,0.0068,0.0086,0.0084,0.0082,0,0,0,0,0,0,0,0,0,0,0,0,0,-0.0005,0.0002,0.0056,0.0077,0.0079,0.0019,0.0018,0.0017,0.006,0.0063,0.0067,0.0069,0.0086,0.0084,0.0082,0.0005,0,0,0.0075,0.0074,0,0,0,0,0,0,0,0,-0.0005,-0.0003,0.0074,0.0076,0.0078,0.0053,0.0005,0.0018,0.0059,0.0062,0.0067,0.0071,0.008,0.0079,0.0057,0.0006,0.0007,0.0075,0.0074,0.0073,0.0072,0,0,0,0,0,0,0,-0.0004,-0.0003,0.0036,0.0074,0.0076,0.0032,0.0036,0.0006,0.0051,0.0062,0.0066,0.0069,0.0082,0.0059,0.0058,0.0007,0.0075,0.0073,0.0072,0.0071,-0.0017,-0.0018,0,0,0,0,0,0,0.0016,-0.0001,0.0038,0.0036,0.0049,0.0032,0.0036,0.0053,0.005,0.0054,0.0067,0.0072,0.0061,0.006,0.0059,0.0045,0.0073,0.0071,0.0069,-0.0016,-0.0018,-0.0019,0,0,0,0,0,0,0.0015,0.002,0.0039,0.0019,0.002,0.0031,0.0049,0.0051,0.0053,0.0054,0.0059,0.0072,0.0063,0.0062,0.0062,0.0044,0.007,0.0068,-0.0015,-0.0017,-0.0018,-0.0031,0,0,0,0,0,0,0.0014,0.002,0.0025,0.0021,0.0022,0.0005,0.0047,0.0048,0.0052,0.0058,0.0059,0.0063,0.0066,0.0065,0.0059,0.0041,0.0066,-0.0014,-0.0016,-0.0018,-0.003,-0.0033,-0.0036,0,0,0,0,0,0.0012,-0.001,0.0026,0.003,0.0034,0.0004,-0.0002,0.0013,0.0049,0.0031,0.0056,0.0064,0.0049,0.0062,0.0056,0.0037,-0.0013,-0.0015,-0.0018,-0.0028,-0.0032,-0.0036,0,0,0,0,0,0,-0.0042,-0.0007,0.0032,0.0023,0.0025,0.0014,-0.0014,0.0014,0.0014,0.0033,0.0049,0.0052,0.0034,0.0037,0.0052,0.0005,0.0018,0.0014,0.0012,0.0008,0.0004,0.0046,0.0064,0,0,0,0,0,-0.0046,-0.0039,-0.0017,-0.002,-0.0026,-0.0012,-0.0023,0.0001,0.0006,0.001,0.0007,0.0013,0.0008,0.0017,-0.0009,-0.0029,0.0007,-0.0045,-0.0049,-0.0051,-0.0023,0.0033,0.0039,-0.0026,-0.0026,-0.0026,0,0,-0.0063,-0.0045,-0.0038,-0.003,-0.0033,-0.0062,-0.0013,-0.0026,-0.0032,0.0009,-0.0022,-0.0013,-0.0004,-0.0028,-0.0034,-0.0015,-0.0025,-0.0054,-0.0056,-0.0025,0.0032,0.0039,0.0045,-0.0028,-0.0028,-0.0027,0,0,-0.0119,-0.0084,-0.0104,-0.0112,-0.0103,-0.0097,-0.0093,-0.0097,-0.0084,-0.01,-0.0068,-0.0041,-0.0087,-0.0057,-0.0048,-0.0083,-0.0058,-0.0113,-0.0077,-0.0025,-0.0017,-0.001,0.0007,0.0016,-0.0096,-0.0096,-0.0096,0,-0.0143,-0.015,-0.0122,-0.0157,-0.0167,-0.0111,-0.0147,-0.0142,-0.014,-0.0115,-0.0111,-0.0092,-0.0093,-0.0053,-0.0062,-0.0087,-0.0062,-0.0061,-0.0024,-0.0017,-0.0009,0.0008,0.0018,-0.0097,-0.0097,-0.0097,-0.0097,0,-0.0213,-0.0224,-0.0252,-0.0256,-0.0271,-0.0294,-0.027,-0.0267,-0.0235,-0.0201,-0.0164,-0.0138,-0.0096,-0.0114,-0.0097,-0.0047,-0.0053,-0.0048,-0.0005,-0.0002,0.0013,0.0024,-0.0098,-0.0098,-0.0098,-0.0098,0,0,-0.0282,-0.029,-0.0306,-0.0319,-0.0318,-0.0343,-0.0343,-0.0317,-0.0268,-0.0254,-0.0194,-0.0181,-0.0105,-0.0087,-0.0051,0.0002,0.0053,0.0006,0.001,0.004,0.015,0.005,0.0051,0.007,0.0073,0.0075,0.0128,0,-0.035,-0.0418,-0.0399,-0.0468,-0.051,-0.0454,-0.0449,-0.0404,-0.0339,-0.0276,-0.0182,-0.013,-0.0111,-0.0062,-0.0003,0.0037,0.0086,0.0037,0.013,0.0133,0.0059,0.0063,0.0075,0.0116,0.0139,0.014,0.0142,0,-0.0454,-0.0477,-0.0543,-0.0548,-0.0557,-0.0569,-0.0513,-0.0502,-0.037,-0.0294,-0.0175,-0.0099,0.0002,0.0013,0.0128,0.0096,0.0131,0.016,0.0163,0.0094,0.0054,0.0123,0.0135,0.016,0.0159,0.0157,0.0156,0,-0.0554,-0.0599,-0.0642,-0.0655,-0.0639,-0.0631,-0.0613,-0.0504,-0.0448,-0.0289,-0.0201,-0.0062,0.001,0.0094,0.0153,0.0153,0.026,0.0264,0.0209,0.02,0.0244,0.0234,0.0354,0.0354,0.0354,0.0353,0.0353,0,-0.0664,-0.0712,-0.0684,-0.0717,-0.0728,-0.0706,-0.066,-0.0588,-0.0447,-0.036,-0.0209,-0.0114,0.0037,0.0115,0.017,0.0208,0.0275,0.0225,0.0219,0.0229,0.0218,0.029,0.0282,0.0355,0.0355,0.0355,0.0354,0,-0.078,-0.0768,-0.0811,-0.0786,-0.0779,-0.0792,-0.0706,-0.0654,-0.0511,-0.0388,-0.0336,-0.0148,-0.0061,0.0055,0.0174,0.0205,0.0261,0.0255,0.0231,0.022,0.0166,0.0156,0.0222,0.0219,0.0217,0.0215,0.0213,0,-0.0846,-0.088,-0.086,-0.0867,-0.0853,-0.0845,-0.0817,-0.0694,-0.0617,-0.0426,-0.0375,-0.0247,-0.0154,-0.0029,0.0056,0.014,0.0176,0.0183,0.0184,0.0171,0.0159,0.0153,0.0146,0.0234,0.0233,0.0232,0.0231,0,-0.0948,-0.092,-0.0927,-0.0929,-0.0922,-0.09,-0.0852,-0.0793,-0.0644,-0.0531,-0.0409,-0.0337,-0.0215,-0.0112,-0.0017,0.0031,0.0171,0.0154,0.0201,0.023,0.0177,0.0166,0.0161,0.0221,0.0222,0.0222,0.0223,0.0223,-0.0994,-0.0992,-0.0974,-0.0976,-0.0969,-0.0934,-0.0886,-0.0815,-0.0711,-0.05,-0.0474,-0.0305,-0.0229,-0.0073,-0.0039,0.0032,0.0034,0.0101,0.0108,0.0116,0.0073,0.0015,0.0019,0.0019,0.0019,0.0018,0.0018,0,-0.1025,-0.1013,-0.1025,-0.0994,-0.0979,-0.0959,-0.0883,-0.0794,-0.0675,-0.0518,-0.0389,-0.0251,-0.016,-0.0067,0.0016,0.0019,0.0068,0.0038,0.0126,0.0134,0.0142,0.0104,0.0057,0.0057,0.0057,0.0058,0,0,-0.103,-0.1034,-0.102,-0.0996,-0.097,-0.0879,-0.0819,-0.071,-0.0567,-0.04,-0.0248,-0.0131,-0.0076,-0.0005,-0.0001,0.0046,0.0093,0.0049,0.0017,0.0127,0.0136,0.0173,0.0121,0,0,0,0,0]}],[{"header":{"parameterUnit":"m.s-1","parameterCategory":2,"la1":30.2991,"la2":30.254,"lo1":-89.0895,"lo2":-89.0444,"dy":0.0017,"dx":0.0017,"nx":28,"ny":28,"refTime":"2024-09-01T21:00:00:Z","depth":"4","parameterNumber":2,"parameterNumberName":"U-component_of_CURRENTS"},"data":[0,0,0,0,0,0,0,0,0,0,0,0,0,0,0,0,0,0,0,0,0,0,0,0,0,0,0,0,0,0,0,0,0,0,0,0,0,0,0,0,0,0,0,0,0,0,0,0,0,0,0,0,0,0,0,0,0,0,-0.0417,-0.0418,0,-0.0517,-0.0519,-0.052,-0.0587,-0.0587,-0.0587,-0.0587,-0.0658,-0.066,-0.0662,0,0,0,0,0,0,0,0,0,0,0,0,0,-0.0319,-0.0321,-0.0417,-0.0418,-0.0419,-0.0517,-0.0519,-0.0521,-0.0587,-0.0587,-0.0587,-0.0587,-0.0658,-0.066,-0.0662,0,0,0,0,0,0,0,0,0,0,0,0,0,-0.0388,-0.0321,-0.0417,-0.0461,-0.0466,-0.0517,-0.0519,-0.0521,-0.0587,-0.0587,-0.0587,-0.0587,-0.0657,-0.0659,-0.0662,-0.0676,0,0,-0.067,-0.0672,0,0,0,0,0,0,0,0,-0.0384,-0.0392,-0.0454,-0.0458,-0.0463,-0.0536,-0.051,-0.057,-0.0587,-0.0545,-0.0587,-0.0587,-0.0612,-0.0619,-0.0643,-0.0679,-0.0682,-0.0671,-0.0672,-0.0673,-0.0674,0,0,0,0,0,0,0,-0.0379,-0.0388,-0.0461,-0.0455,-0.046,-0.0488,-0.0498,-0.0523,-0.0579,-0.0548,-0.0552,-0.0558,-0.0615,-0.064,-0.0645,-0.0683,-0.0671,-0.0673,-0.0675,-0.0676,-0.0813,-0.0814,0,0,0,0,0,0,-0.0358,-0.0384,-0.0457,-0.0463,-0.0419,-0.0489,-0.0501,-0.0516,-0.0579,-0.0588,-0.0557,-0.056,-0.0635,-0.0642,-0.0647,-0.0725,-0.0673,-0.0676,-0.0677,-0.0811,-0.0813,-0.0815,0,0,0,0,0,0,-0.0355,-0.0364,-0.0453,-0.0422,-0.0435,-0.049,-0.0507,-0.0518,-0.0558,-0.0586,-0.0595,-0.0588,-0.0636,-0.0644,-0.0699,-0.0725,-0.0677,-0.068,-0.0808,-0.0811,-0.0814,-0.0841,0,0,0,0,0,0,-0.0352,-0.0363,-0.0375,-0.0421,-0.0436,-0.0497,-0.0507,-0.0519,-0.0558,-0.0564,-0.0615,-0.0621,-0.0637,-0.0695,-0.0702,-0.0728,-0.0682,-0.0806,-0.081,-0.0813,-0.0838,-0.0845,-0.0851,0,0,0,0,0,-0.0349,-0.0362,-0.0375,-0.0384,-0.0449,-0.0497,-0.0509,-0.055,-0.056,-0.0586,-0.0628,-0.062,-0.0724,-0.0699,-0.0706,-0.0734,-0.0804,-0.0808,-0.0813,-0.0835,-0.0844,-0.0851,0,0,0,0,0,0,-0.0327,-0.0371,-0.0387,-0.0414,-0.0457,-0.0507,-0.0538,-0.0557,-0.0612,-0.0622,-0.0646,-0.0656,-0.0712,-0.0725,-0.0697,-0.0788,-0.0763,-0.0769,-0.0777,-0.0785,-0.0792,-0.0769,-0.0684,0,0,0,0,0,-0.0326,-0.0345,-0.0395,-0.0415,-0.0445,-0.0494,-0.052,-0.0547,-0.0593,-0.0619,-0.0656,-0.0697,-0.0735,-0.0761,-0.0795,-0.0844,-0.0827,-0.0869,-0.0875,-0.088,-0.087,-0.086,-0.0863,-0.083,-0.083,-0.083,0,0,-0.0312,-0.0345,-0.035,-0.0411,-0.0455,-0.0512,-0.0513,-0.0561,-0.0605,-0.0615,-0.0696,-0.0718,-0.0753,-0.0812,-0.0838,-0.0828,-0.0888,-0.0886,-0.089,-0.0876,-0.0864,-0.0867,-0.0869,-0.0833,-0.0833,-0.0832,0,0,-0.0299,-0.0342,-0.0359,-0.0419,-0.0483,-0.0523,-0.0538,-0.0606,-0.0639,-0.0709,-0.0725,-0.0764,-0.0838,-0.0862,-0.0882,-0.0945,-0.0918,-0.0962,-0.0981,-0.0972,-0.0973,-0.0974,-0.0975,-0.0975,-0.097,-0.097,-0.097,0,-0.0294,-0.0328,-0.0371,-0.0431,-0.0486,-0.0532,-0.0587,-0.0633,-0.0705,-0.0721,-0.0743,-0.0826,-0.0861,-0.0903,-0.0938,-0.0957,-0.0946,-0.0944,-0.0976,-0.0976,-0.0977,-0.0977,-0.0977,-0.0972,-0.0972,-0.0972,-0.0971,0,-0.0321,-0.0357,-0.0386,-0.0478,-0.0539,-0.0596,-0.0672,-0.0723,-0.0766,-0.0791,-0.0843,-0.0888,-0.0929,-0.0954,-0.0974,-0.0998,-0.0988,-0.0977,-0.0945,-0.0981,-0.098,-0.098,-0.0975,-0.0974,-0.0973,-0.0973,0,0,-0.0304,-0.0382,-0.0404,-0.0438,-0.0578,-0.0621,-0.0711,-0.0777,-0.0801,-0.0868,-0.0891,-0.097,-0.0964,-0.0987,-0.1003,-0.1006,-0.1023,-0.1,-0.0999,-0.0981,-0.1005,-0.092,-0.0912,-0.1008,-0.1008,-0.1007,-0.1008,0,-0.0324,-0.0396,-0.0455,-0.0541,-0.0588,-0.0685,-0.0753,-0.0817,-0.0865,-0.09,-0.0925,-0.0969,-0.0985,-0.101,-0.101,-0.1011,-0.102,-0.1024,-0.0989,-0.0988,-0.0891,-0.0907,-0.1007,-0.1008,-0.1008,-0.1008,-0.1008,0,-0.0369,-0.0395,-0.0476,-0.0542,-0.0579,-0.0646,-0.0755,-0.0824,-0.088,-0.0909,-0.0939,-0.0961,-0.0995,-0.1003,-0.1006,-0.1004,-0.1013,-0.101,-0.101,-0.0913,-0.0901,-0.0963,-0.1006,-0.1007,-0.1007,-0.1007,-0.1007,0,-0.035,-0.0425,-0.0477,-0.0528,-0.0619,-0.0667,-0.0729,-0.0814,-0.0849,-0.0922,-0.093,-0.0963,-0.0978,-0.0988,-0.1006,-0.1012,-0.0982,-0.0992,-0.0923,-0.0918,-0.098,-0.0979,-0.0992,-0.0992,-0.0992,-0.0992,-0.0992,0,-0.0382,-0.0412,-0.0459,-0.0503,-0.0538,-0.0637,-0.0692,-0.0757,-0.0817,-0.0833,-0.0922,-0.0923,-0.0973,-0.0969,-0.0989,-0.0939,-0.0975,-0.0916,-0.0904,-0.0998,-0.0998,-0.0981,-0.0979,-0.0992,-0.0992,-0.0992,-0.0992,0,-0.0364,-0.0413,-0.0448,-0.0515,-0.0536,-0.0575,-0.066,-0.068,-0.0762,-0.0787,-0.0819,-0.0882,-0.0892,-0.0916,-0.0928,-0.0901,-0.0887,-0.0869,-0.0969,-0.0965,-0.084,-0.0841,-0.0792,-0.0789,-0.0786,-0.0784,-0.0782,0,-0.0352,-0.0381,-0.0444,-0.0452,-0.0483,-0.0535,-0.0564,-0.0654,-0.0677,-0.075,-0.0744,-0.0783,-0.0817,-0.0754,-0.0803,-0.0814,-0.0813,-0.0809,-0.0825,-0.0822,-0.0816,-0.082,-0.0825,-0.0778,-0.0777,-0.0776,-0.0776,0,-0.031,-0.0358,-0.0382,-0.0402,-0.043,-0.0439,-0.0485,-0.0492,-0.0595,-0.0647,-0.0659,-0.0682,-0.0669,-0.0697,-0.07,-0.0716,-0.081,-0.0781,-0.0787,-0.0803,-0.0804,-0.0802,-0.0809,-0.0766,-0.0768,-0.0768,-0.0769,0,-0.027,-0.0275,-0.0328,-0.034,-0.0354,-0.0343,-0.038,-0.0405,-0.0445,-0.054,-0.0536,-0.0589,-0.0644,-0.0644,-0.0652,-0.0649,-0.0654,-0.0649,-0.0663,-0.0673,-0.0635,-0.0619,-0.0502,0,0,0,0,0,-0.0211,-0.0232,-0.0248,-0.0259,-0.0267,-0.0272,-0.0323,-0.0368,-0.0457,-0.044,-0.0491,-0.0498,-0.0515,-0.0554,-0.0529,-0.0599,-0.0651,-0.0567,-0.0651,-0.0714,-0.0725,-0.0691,0,0,0,0,0,0,-0.0171,-0.0206,-0.023,-0.0184,-0.0169,-0.0167,-0.0194,-0.025,-0.0265,-0.036,-0.0378,-0.0443,-0.0474,-0.0502,-0.0504,-0.0514,-0.0554,-0.0607,-0.0605,-0.0708,-0.0718,-0.0727,-0.0696,0,0,0,0,0]},{"header":{"parameterUnit":"m.s-1","parameterCategory":2,"la1":30.2991,"la2":30.254,"lo1":-89.0895,"lo2":-89.0444,"dy":0.0017,"dx":0.0017,"nx":28,"ny":28,"refTime":"2024-09-01T21:00:00:Z","depth":"4","parameterNumber":3,"parameterNumberName":"V-component_of_CURRENTS"},"data":[0,0,0,0,0,0,0,0,0,0,0,0,0,0,0,0,0,0,0,0,0,0,0,0,0,0,0,0,0,0,0,0,0,0,0,0,0,0,0,0,0,0,0,0,0,0,0,0,0,0,0,0,0,0,0,0,0,0,-0.044,-0.044,0,-0.0412,-0.0411,-0.0411,-0.0361,-0.036,-0.036,-0.036,-0.0337,-0.0337,-0.0337,0,0,0,0,0,0,0,0,0,0,0,0,0,-0.0414,-0.0415,-0.044,-0.044,-0.0441,-0.0412,-0.0411,-0.041,-0.0361,-0.036,-0.036,-0.0359,-0.0337,-0.0337,-0.0337,0,0,0,0,0,0,0,0,0,0,0,0,0,-0.0404,-0.0415,-0.044,-0.0417,-0.0415,-0.0413,-0.0411,-0.041,-0.0361,-0.036,-0.036,-0.0359,-0.0337,-0.0337,-0.0336,-0.0344,0,0,-0.0335,-0.0335,0,0,0,0,0,0,0,0,-0.0404,-0.0404,-0.042,-0.0419,-0.0417,-0.0395,-0.0395,-0.0391,-0.0361,-0.0374,-0.036,-0.0359,-0.0362,-0.0359,-0.0346,-0.0343,-0.0342,-0.0335,-0.0335,-0.0335,-0.0335,0,0,0,0,0,0,0,-0.0405,-0.0405,-0.0422,-0.0421,-0.0419,-0.0397,-0.0394,-0.0393,-0.0366,-0.0373,-0.0371,-0.0379,-0.036,-0.0346,-0.0345,-0.0342,-0.0335,-0.0335,-0.0335,-0.0334,-0.0366,-0.0367,0,0,0,0,0,0,-0.0425,-0.0406,-0.0423,-0.0422,-0.0417,-0.0399,-0.0395,-0.0397,-0.0366,-0.0363,-0.038,-0.0377,-0.0347,-0.0345,-0.0344,-0.0376,-0.0335,-0.0334,-0.0334,-0.0364,-0.0366,-0.0367,0,0,0,0,0,0,-0.0424,-0.0426,-0.0424,-0.0419,-0.0418,-0.04,-0.0402,-0.0397,-0.0386,-0.0372,-0.0367,-0.0375,-0.0347,-0.0345,-0.0345,-0.0374,-0.0334,-0.0334,-0.0363,-0.0365,-0.0366,-0.0425,0,0,0,0,0,0,-0.0423,-0.0426,-0.0431,-0.042,-0.0419,-0.0426,-0.0403,-0.0397,-0.0395,-0.0391,-0.0367,-0.0364,-0.0346,-0.0346,-0.0344,-0.0373,-0.0333,-0.0362,-0.0364,-0.0366,-0.0422,-0.0429,-0.0435,0,0,0,0,0,-0.0422,-0.0431,-0.0431,-0.0434,-0.0427,-0.0427,-0.0423,-0.0404,-0.0396,-0.0391,-0.0377,-0.0365,-0.0358,-0.0346,-0.0344,-0.0373,-0.0361,-0.0363,-0.0366,-0.0419,-0.0428,-0.0435,0,0,0,0,0,0,-0.0423,-0.0427,-0.0427,-0.0437,-0.0436,-0.0421,-0.0419,-0.0412,-0.0395,-0.0395,-0.0372,-0.0369,-0.0382,-0.0369,-0.0356,-0.0389,-0.0361,-0.0363,-0.0402,-0.041,-0.0416,-0.0436,-0.0333,0,0,0,0,0,-0.0429,-0.0438,-0.0437,-0.0449,-0.0447,-0.0435,-0.0433,-0.0427,-0.0417,-0.0408,-0.0393,-0.0386,-0.0391,-0.0392,-0.0386,-0.0403,-0.0376,-0.0423,-0.0429,-0.0435,-0.0451,-0.0434,-0.044,-0.0375,-0.0375,-0.0375,0,0,-0.0437,-0.0442,-0.0448,-0.0451,-0.0445,-0.0449,-0.043,-0.0435,-0.0446,-0.0411,-0.0414,-0.0405,-0.0399,-0.0414,-0.042,-0.0408,-0.0434,-0.0438,-0.0442,-0.0456,-0.0437,-0.0443,-0.0449,-0.0377,-0.0376,-0.0376,0,0,-0.0462,-0.0457,-0.0471,-0.0464,-0.047,-0.0466,-0.0472,-0.0462,-0.046,-0.0467,-0.0452,-0.0463,-0.0454,-0.0463,-0.0466,-0.0507,-0.0466,-0.0506,-0.0558,-0.0541,-0.0546,-0.055,-0.0502,-0.0501,-0.0512,-0.0512,-0.0512,0,-0.0473,-0.0491,-0.0476,-0.048,-0.0485,-0.0477,-0.0492,-0.049,-0.0485,-0.0497,-0.0476,-0.0493,-0.0483,-0.0526,-0.0538,-0.0524,-0.0491,-0.0529,-0.0549,-0.0553,-0.0556,-0.0505,-0.0504,-0.0515,-0.0515,-0.0514,-0.0514,0,-0.0494,-0.0513,-0.0518,-0.0525,-0.0522,-0.0537,-0.0534,-0.0545,-0.0547,-0.0547,-0.058,-0.057,-0.0584,-0.0587,-0.0574,-0.061,-0.0569,-0.0555,-0.0529,-0.0566,-0.051,-0.0508,-0.052,-0.0518,-0.0518,-0.0517,0,0,-0.0515,-0.0535,-0.0538,-0.0556,-0.055,-0.0556,-0.058,-0.0608,-0.0632,-0.0633,-0.0663,-0.0685,-0.0681,-0.0687,-0.068,-0.0675,-0.066,-0.063,-0.0627,-0.058,-0.0594,-0.0544,-0.0535,-0.0643,-0.0643,-0.0644,-0.0536,0,-0.0546,-0.058,-0.0577,-0.0614,-0.0628,-0.0627,-0.0647,-0.0664,-0.0674,-0.0692,-0.071,-0.0726,-0.0719,-0.0729,-0.0728,-0.0675,-0.066,-0.0689,-0.0567,-0.0563,-0.0514,-0.0534,-0.0646,-0.0534,-0.0533,-0.0533,-0.0532,0,-0.0559,-0.0589,-0.0629,-0.0671,-0.0675,-0.0699,-0.0736,-0.0755,-0.0777,-0.0782,-0.0811,-0.0796,-0.0813,-0.0786,-0.0737,-0.0751,-0.0686,-0.0639,-0.0634,-0.0571,-0.0511,-0.0494,-0.0527,-0.0528,-0.0528,-0.0528,-0.0529,0,-0.0574,-0.0624,-0.0668,-0.0672,-0.0707,-0.0745,-0.0776,-0.0795,-0.0803,-0.0845,-0.0835,-0.0858,-0.0841,-0.0801,-0.0707,-0.0717,-0.0615,-0.061,-0.0507,-0.05,-0.0549,-0.0546,-0.0573,-0.0573,-0.0573,-0.0574,-0.0574,0,-0.0594,-0.0633,-0.069,-0.0708,-0.0764,-0.0779,-0.0829,-0.0861,-0.0876,-0.0866,-0.0889,-0.0865,-0.0839,-0.0768,-0.0707,-0.059,-0.0612,-0.0521,-0.048,-0.0572,-0.0573,-0.0545,-0.0543,-0.057,-0.057,-0.0571,-0.0572,0,-0.0593,-0.063,-0.0679,-0.0744,-0.077,-0.0806,-0.0851,-0.0865,-0.0895,-0.088,-0.0885,-0.0851,-0.0767,-0.0713,-0.0612,-0.0564,-0.0476,-0.0424,-0.0503,-0.0466,-0.037,-0.0372,-0.0313,-0.0311,-0.0309,-0.0307,-0.0306,0,-0.06,-0.0626,-0.0692,-0.0713,-0.0754,-0.081,-0.0827,-0.0873,-0.0864,-0.0847,-0.0815,-0.0754,-0.0717,-0.0536,-0.0502,-0.0393,-0.0377,-0.033,-0.0394,-0.0382,-0.0348,-0.0354,-0.0359,-0.0302,-0.0302,-0.0301,-0.0301,0,-0.0605,-0.0623,-0.0653,-0.0696,-0.0732,-0.0755,-0.0792,-0.0786,-0.0798,-0.0816,-0.0724,-0.0663,-0.0558,-0.0483,-0.0395,-0.0322,-0.0375,-0.0309,-0.0313,-0.0373,-0.0368,-0.0338,-0.0345,-0.0294,-0.0295,-0.0295,-0.0296,0,-0.0595,-0.0602,-0.063,-0.0662,-0.0694,-0.0694,-0.0727,-0.0702,-0.0698,-0.0684,-0.0638,-0.0575,-0.0545,-0.0439,-0.0357,-0.0291,-0.0287,-0.0275,-0.0282,-0.0289,-0.0332,-0.0326,-0.0207,0,0,0,0,0,-0.0577,-0.0571,-0.0595,-0.0617,-0.0642,-0.066,-0.068,-0.0698,-0.0709,-0.0624,-0.0635,-0.0537,-0.0428,-0.0391,-0.0311,-0.0337,-0.0291,-0.0243,-0.0284,-0.0254,-0.0263,-0.0316,0,0,0,0,0,0,-0.0551,-0.0573,-0.0574,-0.0567,-0.0575,-0.059,-0.0603,-0.0613,-0.0569,-0.0578,-0.0515,-0.0505,-0.0401,-0.0461,-0.0302,-0.0287,-0.0299,-0.0205,-0.0203,-0.025,-0.0257,-0.0264,-0.0321,0,0,0,0,0]}]]